QPF
0.00 0.00 0.00 0.01 0.01 0.02 0.04 0.08 0.05 0.03 0.02 0.01 0.01 0.01 0.01 0.02 0.02 0.04 0.04 0.02 0.01 0.02 0.04 0.07 0.07 0.06 0.04 0.03 0.03 0.03 0.03 0.04 0.04 0.03 0.02 0.02 0.02 0.03 0.04 0.05 0.05 0.03 0.01
0.00 0.00 0.00 0.02 0.02 0.03 0.05 0.06 0.03 0.03 0.02 0.02 0.01 0.01 0.01 0.01 0.01 0.02 0.02 0.02 0.01 0.01 0.02 0.04 0.06 0.06 0.05 0.03 0.02 0.02 0.02 0.02 0.02 0.02 0.02 0.02 0.02 0.02 0.03 0.04 0.05 0.04 0.01
0.02 0.03 0.03 0.03 0.04 0.04 0.05 0.06 0.06 0.05 0.03 0.02 0.01 0.01 0.00 0.01 0.01 0.01 0.01 0.01 0.01 0.00 0.00 0.02 0.05 0.05 0.05 0.04 0.03 0.03 0.02 0.01 0.01 0.01 0.01 0.01 0.01 0.01 0.02 0.03 0.05 0.05 0.02
0.06 0.08 0.07 0.06 0.10 0.08 0.07 0.11 0.11 0.08 0.07 0.05 0.02 0.01 0.00 0.00 0.00 0.00 0.00 0.00 0.00 0.00 0.00 0.01 0.03 0.04 0.05 0.06 0.05 0.04 0.02 0.01 0.01 0.01 0.01 0.01 0.01 0.01 0.02 0.03 0.04 0.05 0.03
0.11 0.14 0.12 0.15 0.17 0.13 0.13 0.10 0.13 0.17 0.15 0.14 0.07 0.03 0.00 0.00 0.00 0.00 0.00 0.00 0.00 0.00 0.00 0.01 0.01 0.02 0.04 0.07 0.07 0.06 0.04 0.02 0.01 0.01 0.01 0.01 0.02 0.02 0.02 0.02 0.03 0.04 0.02
0.17 0.19 0.17 0.19 0.20 0.18 0.21 0.25 0.26 0.22 0.16 0.14 0.06 0.02 0.01 0.00 0.00 0.00 0.00 0.00 0.00 0.00 0.00 0.00 0.01 0.01 0.01 0.03 0.04 0.06 0.06 0.04 0.02 0.02 0.02 0.02 0.02 0.02 0.01 0.02 0.03 0.03 0.02
0.21 0.23 0.19 0.23 0.24 0.22 0.25 0.28 0.25 0.20 0.17 0.15 0.07 0.03 0.01 0.00 0.00 0.00 0.00 0.00 0.00 0.00 0.00 0.00 0.00 0.02 0.03 0.01 0.02 0.03 0.06 0.08 0.06 0.04 0.03 0.02 0.02 0.01 0.01 0.01 0.02 0.02 0.01
0.23 0.23 0.25 0.25 0.23 0.23 0.23 0.24 0.22 0.18 0.13 0.11 0.09 0.06 0.01 0.00 0.00 0.00 0.00 0.00 0.00 0.00 0.01 0.01 0.02 0.04 0.04 0.03 0.04 0.02 0.03 0.07 0.08 0.07 0.05 0.03 0.02 0.01 0.01 0.01 0.01 0.01 0.01
0.28 0.25 0.26 0.26 0.23 0.22 0.21 0.22 0.20 0.15 0.11 0.10 0.08 0.07 0.04 0.02 0.01 0.00 0.00 0.01 0.02 0.03 0.04 0.03 0.02 0.02 0.04 0.04 0.06 0.06 0.04 0.03 0.04 0.06 0.06 0.05 0.03 0.01 0.01 0.02 0.02 0.02 0.01
0.32 0.29 0.27 0.24 0.23 0.21 0.17 0.14 0.12 0.10 0.08 0.07 0.06 0.05 0.06 0.07 0.06 0.03 0.01 0.03 0.04 0.04 0.04 0.03 0.02 0.03 0.04 0.06 0.08 0.08 0.09 0.07 0.04 0.02 0.03 0.04 0.04 0.02 0.01 0.02 0.03 0.03 0.03
0.33 0.31 0.27 0.23 0.18 0.14 0.10 0.08 0.07 0.06 0.05 0.04 0.04 0.04 0.04 0.07 0.09 0.08 0.03 0.04 0.05 0.05 0.06 0.05 0.05 0.06 0.06 0.07 0.08 0.07 0.07 0.05 0.04 0.02 0.01 0.01 0.02 0.02 0.01 0.02 0.04 0.06 0.06
0.29 0.28 0.25 0.20 0.16 0.11 0.07 0.05 0.04 0.04 0.03 0.02 0.03 0.03 0.03 0.05 0.07 0.10 0.07 0.06 0.05 0.05 0.05 0.05 0.05 0.05 0.06 0.07 0.06 0.04 0.03 0.03 0.03 0.03 0.02 0.01 0.01 0.01 0.01 0.01 0.03 0.06 0.10
0.25 0.25 0.22 0.16 0.12 0.07 0.05 0.03 0.03 0.03 0.02 0.02 0.02 0.02 0.02 0.04 0.06 0.08 0.08 0.06 0.05 0.05 0.05 0.05 0.06 0.08 0.07 0.09 0.09 0.04 0.03 0.03 0.03 0.03 0.03 0.02 0.01 0.01 0.01 0.01 0.03 0.06 0.11
0.19 0.16 0.13 0.11 0.09 0.06 0.03 0.02 0.02 0.02 0.01 0.01 0.01 0.02 0.03 0.04 0.05 0.06 0.07 0.07 0.04 0.03 0.03 0.03 0.04 0.07 0.07 0.06 0.07 0.04 0.04 0.04 0.03 0.02 0.02 0.01 0.01 0.01 0.01 0.01 0.03 0.06 0.10
0.17 0.15 0.13 0.11 0.08 0.05 0.02 0.01 0.01 0.01 0.01 0.01 0.01 0.02 0.02 0.03 0.04 0.05 0.07 0.08 0.06 0.04 0.04 0.04 0.05 0.06 0.06 0.05 0.06 0.04 0.05 0.04 0.03 0.02 0.02 0.01 0.01 0.01 0.01 0.01 0.02 0.04 0.09
0.12 0.11 0.10 0.08 0.05 0.03 0.01 0.01 0.01 0.01 0.01 0.01 0.02 0.02 0.02 0.02 0.03 0.03 0.04 0.06 0.08 0.08 0.05 0.04 0.05 0.06 0.07 0.06 0.07 0.06 0.05 0.05 0.03 0.02 0.01 0.01 0.01 0.01 0.01 0.01 0.02 0.03 0.07
0.10 0.07 0.06 0.05 0.03 0.02 0.01 0.01 0.01 0.01 0.01 0.01 0.01 0.01 0.01 0.01 0.02 0.01 0.01 0.02 0.04 0.05 0.04 0.03 0.04 0.04 0.06 0.08 0.09 0.08 0.07 0.06 0.05 0.04 0.02 0.02 0.02 0.02 0.02 0.03 0.04 0.06 0.09
0.07 0.05 0.04 0.03 0.02 0.01 0.01 0.01 0.01 0.01 0.01 0.01 0.01 0.01 0.01 0.01 0.01 0.00 0.01 0.01 0.01 0.01 0.02 0.02 0.03 0.04 0.06 0.08 0.08 0.08 0.06 0.06 0.07 0.06 0.04 0.03 0.04 0.03 0.04 0.05 0.07 0.09 0.12
0.05 0.03 0.02 0.01 0.01 0.01 0.01 0.01 0.01 0.01 0.01 0.00 0.00 0.00 0.01 0.01 0.01 0.01 0.00 0.00 0.00 0.00 0.01 0.02 0.03 0.05 0.08 0.07 0.07 0.07 0.06 0.08 0.07 0.06 0.05 0.04 0.05 0.06 0.06 0.07 0.09 0.13 0.15
0.04 0.02 0.01 0.01 0.01 0.01 0.01 0.01 0.01 0.00 0.00 0.00 0.00 0.00 0.00 0.00 0.00 0.00 0.00 0.00 0.00 0.00 0.01 0.02 0.03 0.05 0.06 0.06 0.05 0.06 0.07 0.09 0.09 0.06 0.05 0.04 0.04 0.07 0.08 0.09 0.11 0.15 0.20
0.03 0.02 0.01 0.00 0.00 0.00 0.00 0.00 0.00 0.00 0.00 0.00 0.00 0.00 0.00 0.00 0.00 0.00 0.00 0.00 0.00 0.00 0.00 0.01 0.02 0.02 0.02 0.02 0.03 0.04 0.06 0.11 0.13 0.09 0.06 0.05 0.05 0.05 0.06 0.06 0.08 0.12 0.18
0.02 0.02 0.01 0.01 0.00 0.00 0.00 0.00 0.00 0.00 0.00 0.00 0.00 0.00 0.00 0.00 0.00 0.00 0.00 0.00 0.00 0.00 0.00 0.01 0.01 0.01 0.01 0.01 0.01 0.02 0.05 0.08 0.11 0.11 0.09 0.08 0.05 0.05 0.04 0.04 0.05 0.06 0.10
0.01 0.01 0.01 0.00 0.00 0.00 0.00 0.00 0.00 0.00 0.00 0.00 0.00 0.00 0.00 0.00 0.00 0.00 0.00 0.00 0.00 0.00 0.00 0.01 0.02 0.01 0.01 0.01 0.01 0.02 0.04 0.08 0.12 0.15 0.15 0.16 0.13 0.10 0.08 0.06 0.06 0.05 0.05
0.01 0.01 0.00 0.00 0.00 0.00 0.00 0.00 0.00 0.00 0.00 0.00 0.00 0.00 0.00 0.00 0.00 0.00 0.00 0.00 0.00 0.00 0.00 0.00 0.01 0.01 0.00 0.00 0.01 0.02 0.03 0.07 0.14 0.16 0.16 0.20 0.20 0.20 0.20 0.18 0.14 0.09 0.05
0.02 0.01 0.00 0.00 0.00 0.00 0.00 0.00 0.00 0.00 0.00 0.00 0.00 0.00 0.00 0.00 0.00 0.00 0.00 0.00 0.00 0.00 0.00 0.00 0.00 0.00 0.00 0.00 0.00 0.01 0.03 0.05 0.12 0.17 0.20 0.24 0.27 0.28 0.31 0.33 0.29 0.24 0.16
0.02 0.01 0.00 0.00 0.00 0.00 0.00 0.00 0.00 0.00 0.00 0.00 0.00 0.00 0.00 0.00 0.00 0.00 0.00 0.00 0.00 0.00 0.00 0.01 0.01 0.01 0.01 0.00 0.00 0.01 0.02 0.05 0.09 0.14 0.19 0.25 0.33 0.37 0.44 0.46 0.43 0.40 0.32
MSLP
1014.23 1014.32 1014.37 1014.38 1014.37 1014.35 1014.33 1014.31 1014.28 1014.23 1014.14 1014.00 1013.82 1013.60 1013.39 1013.22 1013.12 1013.10 1013.18 1013.34 1013.55 1013.77 1013.96 1014.10 1014.17 1014.18 1014.16 1014.14 1014.15 1014.20 1014.31 1014.48 1014.70 1014.94 1015.20 1015.44 1015.68 1015.91 1016.13 1016.37 1016.62 1016.90 1017.19
1013.93 1014.04 1014.10 1014.11 1014.10 1014.07 1014.04 1014.01 1013.98 1013.94 1013.86 1013.73 1013.55 1013.33 1013.10 1012.88 1012.72 1012.63 1012.64 1012.73 1012.88 1013.07 1013.26 1013.42 1013.53 1013.59 1013.61 1013.62 1013.65 1013.71 1013.83 1013.99 1014.21 1014.45 1014.71 1014.96 1015.21 1015.44 1015.67 1015.91 1016.17 1016.46 1016.77
1013.74 1013.86 1013.93 1013.94 1013.92 1013.89 1013.85 1013.82 1013.80 1013.76 1013.70 1013.59 1013.41 1013.19 1012.92 1012.65 1012.41 1012.23 1012.14 1012.14 1012.23 1012.38 1012.56 1012.73 1012.87 1012.98 1013.05 1013.10 1013.15 1013.22 1013.33 1013.49 1013.70 1013.93 1014.17 1014.42 1014.66 1014.89 1015.12 1015.37 1015.63 1015.94 1016.28
1013.62 1013.75 1013.82 1013.83 1013.80 1013.76 1013.71 1013.68 1013.66 1013.64 1013.59 1013.49 1013.33 1013.10 1012.81 1012.48 1012.16 1011.89 1011.70 1011.61 1011.62 1011.72 1011.87 1012.05 1012.22 1012.37 1012.47 1012.56 1012.62 1012.70 1012.81 1012.95 1013.12 1013.33 1013.56 1013.79 1014.02 1014.25 1014.47 1014.72 1014.99 1015.32 1015.69
1013.55 1013.67 1013.73 1013.73 1013.68 1013.61 1013.55 1013.50 1013.48 1013.47 1013.45 1013.37 1013.23 1013.00 1012.69 1012.33 1011.95 1011.61 1011.33 1011.15 1011.08 1011.12 1011.24 1011.41 1011.59 1011.76 1011.89 1011.99 1012.07 1012.14 1012.23 1012.34 1012.49 1012.67 1012.87 1013.08 1013.29 1013.51 1013.73 1013.97 1014.25 1014.59 1014.99
1013.46 1013.57 1013.60 1013.58 1013.50 1013.40 1013.31 1013.25 1013.22 1013.21 1013.20 1013.16 1013.05 1012.84 1012.55 1012.18 1011.77 1011.37 1011.03 1010.78 1010.64 1010.62 1010.70 1010.84 1011.01 1011.17 1011.31 1011.42 1011.49 1011.56 1011.62 1011.71 1011.84 1011.98 1012.16 1012.34 1012.53 1012.73 1012.93 1013.17 1013.45 1013.80 1014.22
1013.30 1013.39 1013.40 1013.34 1013.23 1013.09 1012.96 1012.87 1012.83 1012.83 1012.84 1012.83 1012.76 1012.61 1012.36 1012.02 1011.62 1011.20 1010.82 1010.52 1010.33 1010.25 1010.27 1010.37 1010.51 1010.65 1010.77 1010.87 1010.94 1010.99 1011.04 1011.11 1011.21 1011.34 1011.49 1011.65 1011.81 1011.99 1012.17 1012.39 1012.66 1013.00 1013.42
1013.04 1013.11 1013.10 1013.01 1012.86 1012.69 1012.52 1012.40 1012.34 1012.34 1012.38 1012.41 1012.41 1012.32 1012.14 1011.87 1011.51 1011.12 1010.74 1010.41 1010.18 1010.04 1010.00 1010.04 1010.13 1010.23 1010.32 1010.40 1010.45 1010.50 1010.54 1010.61 1010.70 1010.81 1010.95 1011.09 1011.23 1011.37 1011.53 1011.71 1011.94 1012.25 1012.66
1012.66 1012.73 1012.70 1012.60 1012.42 1012.22 1012.03 1011.88 1011.81 1011.81 1011.87 1011.96 1012.03 1012.03 1011.94 1011.76 1011.48 1011.14 1010.79 1010.46 1010.19 1010.00 1009.89 1009.86 1009.88 1009.93 1009.98 1010.03 1010.07 1010.11 1010.17 1010.24 1010.34 1010.46 1010.59 1010.72 1010.84 1010.94 1011.05 1011.18 1011.36 1011.61 1011.97
1012.18 1012.26 1012.25 1012.14 1011.96 1011.75 1011.54 1011.38 1011.30 1011.31 1011.41 1011.54 1011.68 1011.78 1011.80 1011.71 1011.53 1011.26 1010.95 1010.63 1010.34 1010.10 1009.93 1009.83 1009.77 1009.76 1009.76 1009.78 1009.81 1009.86 1009.94 1010.03 1010.16 1010.29 1010.42 1010.54 1010.63 1010.69 1010.74 1010.79 1010.90 1011.08 1011.37
1011.65 1011.75 1011.77 1011.68 1011.52 1011.32 1011.12 1010.96 1010.89 1010.91 1011.04 1011.22 1011.43 1011.61 1011.72 1011.73 1011.64 1011.45 1011.18 1010.88 1010.58 1010.30 1010.07 1009.89 1009.76 1009.68 1009.63 1009.63 1009.65 1009.71 1009.81 1009.94 1010.09 1010.25 1010.38 1010.49 1010.54 1010.55 1010.52 1010.49 1010.51 1010.60 1010.80
1011.11 1011.26 1011.31 1011.27 1011.15 1010.98 1010.80 1010.67 1010.61 1010.65 1010.79 1011.01 1011.27 1011.51 1011.70 1011.80 1011.78 1011.65 1011.43 1011.15 1010.84 1010.52 1010.23 1009.98 1009.79 1009.64 1009.56 1009.52 1009.54 1009.62 1009.73 1009.89 1010.07 1010.24 1010.37 1010.45 1010.47 1010.41 1010.30 1010.18 1010.10 1010.09 1010.21
1010.64 1010.83 1010.94 1010.95 1010.88 1010.75 1010.61 1010.50 1010.47 1010.53 1010.68 1010.92 1011.20 1011.48 1011.72 1011.86 1011.90 1011.82 1011.63 1011.36 1011.04 1010.70 1010.36 1010.06 1009.81 1009.61 1009.48 1009.42 1009.43 1009.51 1009.64 1009.81 1009.99 1010.16 1010.28 1010.33 1010.29 1010.16 1009.98 1009.77 1009.59 1009.49 1009.53
1010.30 1010.53 1010.67 1010.73 1010.71 1010.64 1010.54 1010.47 1010.46 1010.53 1010.69 1010.93 1011.21 1011.50 1011.74 1011.91 1011.97 1011.91 1011.74 1011.48 1011.15 1010.79 1010.42 1010.08 1009.78 1009.54 1009.38 1009.29 1009.28 1009.34 1009.46 1009.62 1009.79 1009.94 1010.03 1010.03 1009.93 1009.73 1009.47 1009.18 1008.92 1008.75 1008.73
1010.14 1010.38 1010.55 1010.64 1010.67 1010.64 1010.59 1010.55 1010.56 1010.64 1010.79 1011.01 1011.27 1011.53 1011.76 1011.91 1011.97 1011.91 1011.74 1011.48 1011.15 1010.78 1010.40 1010.03 1009.71 1009.44 1009.24 1009.11 1009.07 1009.10 1009.19 1009.32 1009.45 1009.54 1009.58 1009.52 1009.36 1009.10 1008.77 1008.42 1008.11 1007.89 1007.83
1010.19 1010.40 1010.57 1010.68 1010.73 1010.74 1010.73 1010.72 1010.75 1010.83 1010.97 1011.16 1011.38 1011.60 1011.79 1011.90 1011.93 1011.86 1011.68 1011.42 1011.09 1010.72 1010.34 1009.96 1009.62 1009.32 1009.09 1008.93 1008.84 1008.82 1008.85 1008.92 1008.98 1009.01 1008.98 1008.86 1008.64 1008.33 1007.95 1007.57 1007.23 1006.99 1006.93
1010.42 1010.59 1010.74 1010.84 1010.91 1010.94 1010.96 1010.98 1011.03 1011.11 1011.23 1011.39 1011.57 1011.73 1011.86 1011.93 1011.92 1011.82 1011.63 1011.36 1011.04 1010.68 1010.30 1009.93 1009.58 1009.26 1009.00 1008.80 1008.65 1008.56 1008.52 1008.50 1008.48 1008.43 1008.33 1008.14 1007.88 1007.53 1007.15 1006.76 1006.42 1006.20 1006.16
1010.80 1010.92 1011.03 1011.12 1011.18 1011.23 1011.27 1011.31 1011.38 1011.46 1011.58 1011.71 1011.84 1011.95 1012.03 1012.04 1011.99 1011.86 1011.66 1011.39 1011.08 1010.73 1010.36 1009.99 1009.64 1009.31 1009.02 1008.77 1008.56 1008.40 1008.27 1008.16 1008.05 1007.92 1007.75 1007.52 1007.23 1006.88 1006.50 1006.14 1005.84 1005.66 1005.66
1011.25 1011.33 1011.40 1011.47 1011.53 1011.58 1011.64 1011.71 1011.79 1011.89 1012.00 1012.11 1012.21 1012.29 1012.32 1012.29 1012.20 1012.05 1011.83 1011.56 1011.25 1010.91 1010.56 1010.20 1009.85 1009.50 1009.18 1008.88 1008.61 1008.37 1008.16 1007.97 1007.78 1007.59 1007.37 1007.11 1006.81 1006.48 1006.15 1005.84 1005.60 1005.49 1005.54
1011.71 1011.76 1011.81 1011.86 1011.92 1011.98 1012.06 1012.15 1012.26 1012.37 1012.49 1012.60 1012.68 1012.73 1012.73 1012.68 1012.56 1012.38 1012.15 1011.88 1011.58 1011.25 1010.91 1010.55 1010.19 1009.84 1009.48 1009.14 1008.82 1008.52 1008.24 1007.97 1007.73 1007.49 1007.24 1006.98 1006.70 1006.42 1006.14 1005.91 1005.75 1005.70 1005.81
1012.12 1012.16 1012.20 1012.25 1012.32 1012.40 1012.50 1012.61 1012.74 1012.88 1013.01 1013.13 1013.21 1013.25 1013.23 1013.16 1013.02 1012.83 1012.60 1012.32 1012.02 1011.70 1011.36 1011.01 1010.64 1010.27 1009.89 1009.52 1009.15 1008.80 1008.47 1008.16 1007.88 1007.62 1007.37 1007.13 1006.89 1006.67 1006.47 1006.32 1006.24 1006.27 1006.43
1012.42 1012.48 1012.54 1012.61 1012.69 1012.79 1012.91 1013.05 1013.21 1013.36 1013.51 1013.64 1013.73 1013.76 1013.74 1013.66 1013.52 1013.32 1013.08 1012.81 1012.51 1012.18 1011.84 1011.49 1011.12 1010.73 1010.34 1009.94 1009.54 1009.16 1008.80 1008.48 1008.18 1007.92 1007.70 1007.49 1007.32 1007.16 1007.04 1006.97 1006.97 1007.05 1007.25
1012.59 1012.70 1012.79 1012.89 1013.00 1013.13 1013.27 1013.43 1013.61 1013.78 1013.94 1014.08 1014.17 1014.21 1014.19 1014.11 1013.96 1013.77 1013.52 1013.25 1012.95 1012.62 1012.28 1011.92 1011.54 1011.15 1010.74 1010.33 1009.92 1009.53 1009.17 1008.84 1008.56 1008.32 1008.12 1007.97 1007.85 1007.76 1007.71 1007.71 1007.76 1007.88 1008.09
1012.64 1012.80 1012.95 1013.09 1013.23 1013.39 1013.55 1013.73 1013.92 1014.10 1014.26 1014.40 1014.49 1014.53 1014.51 1014.42 1014.28 1014.09 1013.85 1013.57 1013.27 1012.95 1012.61 1012.25 1011.87 1011.47 1011.06 1010.65 1010.24 1009.85 1009.49 1009.18 1008.92 1008.71 1008.55 1008.44 1008.37 1008.33 1008.33 1008.37 1008.45 1008.59 1008.79
1012.59 1012.81 1013.02 1013.21 1013.39 1013.57 1013.76 1013.95 1014.13 1014.31 1014.47 1014.59 1014.67 1014.70 1014.67 1014.59 1014.44 1014.25 1014.02 1013.75 1013.46 1013.15 1012.81 1012.45 1012.08 1011.68 1011.28 1010.87 1010.47 1010.09 1009.75 1009.45 1009.21 1009.02 1008.89 1008.81 1008.77 1008.77 1008.79 1008.85 1008.93 1009.05 1009.22
1012.47 1012.76 1013.02 1013.26 1013.48 1013.70 1013.90 1014.10 1014.28 1014.44 1014.58 1014.68 1014.74 1014.75 1014.70 1014.61 1014.47 1014.28 1014.06 1013.81 1013.54 1013.24 1012.91 1012.57 1012.20 1011.82 1011.42 1011.02 1010.63 1010.26 1009.93 1009.64 1009.42 1009.24 1009.12 1009.05 1009.02 1009.02 1009.04 1009.08 1009.15 1009.23 1009.35
Thickness
5781 5780 5777 5775 5774 5775 5774 5772 5772 5773 5772 5772 5771 5771 5770 5770 5769 5768 5767 5763 5760 5757 5755 5754 5753 5752 5751 5750 5749 5748 5747 5745 5743 5742 5740 5738 5737 5735 5733 5730 5728 5725 5723
5779 5777 5775 5773 5773 5772 5771 5770 5771 5770 5771 5772 5770 5770 5768 5769 5769 5768 5767 5767 5763 5760 5758 5756 5755 5753 5752 5751 5750 5749 5747 5745 5744 5742 5741 5739 5738 5736 5734 5732 5729 5727 5723
5776 5773 5773 5772 5772 5770 5768 5766 5767 5767 5767 5769 5768 5769 5769 5768 5767 5766 5765 5765 5766 5764 5761 5758 5756 5755 5753 5751 5750 5749 5747 5745 5744 5743 5741 5740 5738 5737 5735 5733 5731 5728 5725
5771 5769 5770 5770 5768 5766 5765 5763 5762 5763 5763 5764 5765 5766 5768 5767 5766 5765 5765 5765 5764 5765 5764 5760 5757 5755 5754 5752 5750 5748 5747 5745 5744 5742 5741 5739 5738 5737 5735 5733 5731 5729 5726
5767 5765 5765 5764 5762 5761 5760 5759 5761 5757 5756 5756 5758 5761 5764 5765 5765 5764 5764 5763 5763 5762 5761 5761 5757 5755 5753 5752 5750 5749 5747 5745 5743 5742 5740 5739 5738 5736 5735 5733 5731 5729 5727
5762 5760 5758 5757 5756 5754 5753 5751 5750 5750 5749 5749 5752 5756 5759 5762 5763 5763 5761 5762 5762 5761 5760 5758 5757 5757 5753 5751 5749 5747 5746 5744 5742 5741 5740 5738 5737 5736 5734 5733 5731 5729 5727
5756 5754 5753 5751 5749 5747 5746 5746 5745 5743 5742 5744 5743 5747 5755 5760 5761 5759 5759 5758 5758 5757 5755 5753 5752 5752 5752 5749 5747 5745 5744 5743 5741 5739 5738 5737 5736 5735 5734 5732 5731 5729 5727
5750 5748 5746 5744 5743 5741 5739 5740 5739 5737 5738 5740 5736 5736 5741 5750 5754 5757 5754 5752 5751 5751 5750 5749 5747 5745 5744 5746 5745 5742 5741 5739 5738 5737 5736 5735 5734 5734 5733 5732 5730 5729 5726
5744 5741 5738 5737 5737 5735 5733 5733 5734 5731 5731 5734 5735 5731 5730 5735 5740 5747 5747 5745 5742 5741 5742 5743 5742 5742 5739 5739 5740 5738 5736 5735 5733 5732 5732 5731 5731 5731 5731 5730 5729 5728 5726
5737 5733 5730 5728 5728 5728 5727 5728 5731 5730 5728 5727 5729 5729 5729 5728 5722 5728 5737 5737 5734 5732 5733 5734 5736 5736 5734 5733 5732 5730 5729 5728 5726 5726 5726 5725 5725 5726 5727 5727 5727 5727 5725
5729 5726 5723 5722 5721 5721 5722 5724 5724 5724 5725 5724 5724 5724 5723 5720 5718 5713 5718 5723 5725 5727 5727 5726 5727 5728 5727 5726 5724 5723 5721 5720 5719 5719 5719 5718 5719 5720 5722 5723 5724 5725 5724
5722 5720 5718 5716 5715 5716 5717 5718 5718 5718 5719 5719 5718 5718 5715 5713 5712 5708 5708 5712 5713 5718 5720 5721 5720 5720 5718 5717 5715 5712 5711 5711 5711 5711 5712 5711 5712 5713 5715 5718 5720 5722 5722
5713 5711 5711 5709 5709 5710 5711 5712 5712 5713 5712 5711 5710 5711 5711 5709 5707 5704 5702 5704 5706 5711 5711 5713 5713 5711 5710 5708 5707 5703 5703 5703 5703 5703 5704 5704 5705 5707 5709 5712 5715 5717 5719
5706 5704 5703 5702 5703 5703 5704 5704 5706 5705 5704 5703 5704 5702 5701 5702 5700 5698 5696 5696 5697 5703 5705 5703 5705 5704 5701 5700 5698 5695 5697 5695 5694 5695 5695 5696 5698 5701 5703 5707 5710 5712 5715
5696 5695 5694 5693 5693 5693 5694 5695 5697 5695 5696 5696 5696 5694 5693 5693 5692 5691 5691 5689 5687 5689 5692 5697 5695 5697 5695 5693 5690 5690 5690 5687 5686 5686 5687 5689 5691 5694 5698 5701 5705 5708 5710
5682 5684 5684 5683 5682 5683 5684 5685 5686 5687 5686 5686 5685 5684 5683 5685 5683 5683 5683 5683 5681 5679 5681 5689 5688 5690 5688 5688 5685 5683 5683 5680 5679 5679 5679 5681 5684 5688 5692 5696 5701 5704 5706
5667 5669 5671 5672 5671 5672 5674 5676 5679 5677 5676 5676 5675 5674 5672 5672 5674 5675 5675 5675 5675 5674 5673 5679 5682 5682 5680 5679 5680 5678 5676 5674 5674 5672 5672 5674 5677 5680 5685 5690 5695 5699 5702
5652 5654 5657 5658 5660 5662 5664 5666 5667 5667 5666 5665 5664 5663 5662 5663 5661 5663 5663 5664 5665 5664 5664 5664 5669 5672 5672 5672 5673 5672 5671 5671 5669 5666 5666 5667 5669 5672 5677 5683 5687 5692 5696
5637 5639 5642 5645 5648 5651 5654 5655 5656 5655 5655 5654 5653 5652 5651 5651 5650 5651 5651 5654 5656 5659 5657 5658 5660 5662 5663 5664 5665 5666 5667 5665 5665 5663 5660 5660 5661 5664 5668 5673 5679 5684 5688
5624 5626 5629 5632 5636 5640 5643 5644 5644 5643 5642 5642 5641 5640 5639 5638 5637 5638 5640 5641 5644 5646 5648 5650 5651 5651 5652 5653 5655 5656 5658 5659 5659 5660 5656 5655 5655 5657 5659 5663 5668 5673 5677
5615 5617 5620 5623 5627 5630 5633 5633 5633 5632 5631 5630 5629 5628 5625 5623 5621 5623 5627 5628 5631 5634 5638 5638 5638 5639 5638 5639 5640 5643 5646 5649 5651 5652 5651 5651 5651 5652 5653 5654 5657 5660 5663
5606 5608 5612 5615 5618 5620 5616 5619 5622 5621 5621 5620 5618 5618 5617 5615 5613 5612 5611 5611 5612 5616 5619 5621 5623 5622 5622 5625 5628 5632 5635 5637 5639 5642 5642 5643 5644 5644 5646 5647 5647 5647 5649
5599 5601 5604 5606 5606 5604 5604 5607 5610 5612 5611 5609 5608 5608 5611 5607 5607 5608 5606 5603 5602 5600 5599 5602 5606 5604 5608 5610 5613 5620 5622 5624 5625 5629 5631 5632 5634 5635 5636 5637 5636 5637 5637
5595 5596 5598 5599 5598 5595 5594 5597 5599 5603 5602 5600 5600 5599 5599 5597 5595 5594 5599 5598 5598 5595 5592 5593 5591 5591 5593 5594 5598 5606 5611 5617 5618 5619 5620 5621 5624 5626 5627 5628 5627 5627 5627
5591 5592 5593 5593 5592 5588 5587 5589 5592 5595 5594 5594 5593 5590 5590 5589 5582 5582 5588 5587 5586 5585 5582 5579 5577 5578 5578 5580 5584 5594 5599 5604 5606 5609 5610 5611 5613 5616 5618 5619 5619 5618 5618
5588 5589 5587 5588 5587 5585 5580 5582 5584 5593 5590 5590 5586 5584 5576 5576 5573 5572 5577 5576 5573 5572 5573 5575 5572 5571 5573 5575 5576 5579 5584 5588 5592 5596 5598 5601 5604 5606 5608 5610 5611 5611 5610